作者查詢 / Fitzwilliam
作者 Fitzwilliam 的總覽 (PTT發文,留言,暱稱)
發文數量: 9587
收到的『推』: 59669 (30.6%)
收到的『→』: 134767 (69.0%)
收到的『噓』: 787 (0.4%)
留言數量: 245475
送出的『推』: 19339 (7.9%)
送出的『→』: 225814 (92.0%)
送出的『噓』: 322 (0.1%)
使用過的暱稱: 9
Fitzwilliam 在 PTT 最新的發文, 共 9587 篇
Fitzwilliam 在 PTT 最新的留言, 共 245475 則
232F→: 今年看二軍比賽不時會有這種感覺:育成轉正的山本、05/09 21:50
233F→: 石塚恐怕會跟前年的仲田一樣,如果一軍始終沒空間用05/09 21:50
234F→: 他們的話;井上今年被送去交換禮物的可能性又高了些05/09 21:50
235F→: 當然還是希望能看到他們在一軍貢獻,但一軍今年用人05/09 21:53
236F→: 的彈性似乎更小了些05/09 21:53
1F→: 後來覺得黃金週該算在一起,因此週一到三也算9天8戰05/07 14:38
2F→: 二軍明天到客場對阪神三連戰,沒轉播05/07 14:38
3F→: 明日先發:上澤 vs. 廣池05/07 20:16
4F→: 上澤表示會記取熊本被打掉5分的教訓,努力投長局數05/07 20:16
5F→: ,幫助牛棚保持最佳狀態05/07 20:16
6F→: 武田好投兩場,今天又被斗山打爆,4.2局98球7責失,05/07 20:32
7F→: 8安打、3三振、3四球、1觸身05/07 20:32
8F→: ERA又漲到7.8205/07 20:33
9F→: *更正,是被NC恐龍打爆,前三局3:0領先,四上被灌505/07 20:39
10F→: 分逆轉,五上保送兩人一出局換投,兩分都被送回來05/07 20:39
11F→: 藤原大翔升格支配下,背號2205/08 12:49
12F→: Jeter Downs預定5月底恢復實戰,Moinelo最快5月底05/08 12:49
13F→: 重返一軍05/08 12:49
14F→: Moinelo Live BP設定四局,球數79,面對15名若手,05/08 13:47
15F→: 5三振,製造大量斷棒05/08 13:47
16F→: 應該說是15打席,因為不只打一輪,以若手為主05/08 13:47
17F→: 小久保宣布,Moinelo下週就會在筑後三軍戰登板05/08 14:36
18F→: 對方排出7左打對付上澤;我方二游庄子、今宮05/08 16:27
19F→: 二上兩死三壘纏鬥11球三振友杉05/08 17:50
20F→: 三上松川偷點內安,三連打無死滿壘,小川中飛沒跑,05/08 17:50
21F→: 西川4-6-3雙殺,竟然守住05/08 17:50
22F→: 三下海野先頭左安、庄子拿香、周東左飛,近藤右外兩05/08 17:58
23F→: 分砲打到看台中段,先制!05/08 17:58
24F→: 上澤一上之後還沒三上三下,四上寺地2-2,一死一壘05/08 18:07
25F→: 上田纏鬥8球右安,一死一三壘05/08 18:10
26F→: 友杉強迫取分殺到本壘,兩死一二壘05/08 18:11
27F→: 松川三振,又過一關,但用球數消耗不少05/08 18:16
28F→: 五上兩出局被小川打穿一壘邊線,又是得點圈危機05/08 18:30
29F→: 西川中飛被周東前進追上,上澤五局89球05/08 18:31
30F→: 四五兩局對廣池六上六下,山川、今宮連續三振05/08 18:40
31F→: 明天大津 vs. 田中晴斗05/08 18:42
32F→: 六上無死一二壘,上澤破百球05/08 18:45
33F→: 上田右安,無死滿壘05/08 18:47
34F→: 友杉右安,2:1,在熊本雙響砲的佐藤都代打05/08 18:48
35F→: 兩好球被二壘打逆轉,2:3,無死二三壘上澤KO05/08 18:51
36F→: 這時候才上Hernandez?不是這局開始就該直接上嗎?05/08 18:52
37F→: Soto代打高部,上澤五局又5人次被11安05/08 18:53
38F→: Soto 3球三振,現在才一出局05/08 18:54
39F→: 藤原左安,兩分都回來,上澤大失血,2:505/08 18:55
40F→: 盜壘死,壘上沒人05/08 18:56
41F→: 小川游滾,今天是要送人本季首勝了嗎?05/08 18:57
42F→: 幾乎每個先發都被一局爆,這是正常現象嗎!?05/08 18:58
43F→: 六下周東保送、近藤左安落地,一三壘開局05/08 19:07
44F→: 柳田左犧飛,3:5,一死一壘05/08 19:09
45F→: 栗原三壘沖天炮,柳町右飛,還落後兩分05/08 19:12
46F→: 杉山七上接手05/08 19:14
47F→: 西川三滾、Polanco兩好球投到保送,一死一壘05/08 19:18
48F→: 寺地保送,一死一二壘05/08 19:20
49F→: 今宮上投手丘講話05/08 19:20
50F→: 上田投滾,只抓到二壘,兩死一三壘05/08 19:21
51F→: 友杉三振,有點抖但沒失分05/08 19:22
52F→: 七下澤田接手05/08 19:25
53F→: 山川先頭左安,野村勇代跑05/08 19:27
54F→: 今宮三振,牧原代打05/08 19:29
55F→: 牧原中線游滾,二壘沒人只能抓一壘,兩死二壘05/08 19:31
56F→: 庄子游滾,殘05/08 19:32
57F→: 尾形八上接手,谷川原蹲捕,野村勇三壘、牧原二壘、05/08 19:35
58F→: 栗原去一壘05/08 19:35
59F→: 佐藤都左飛、和田左飛、藤原中安落地,兩死一壘05/08 19:39
60F→: 莫名其妙被抓投手犯規,兩死二壘05/08 19:40
61F→: 小川三邪飛,好險沒掉分05/08 19:43
62F→: 對方八下鈴木昭汰接手05/08 19:45
63F→: 周東二滾,近藤都已經打到外野了還被沒收,去他的05/08 19:48
64F→: 再繼續不禁止極端布陣啊05/08 19:48
65F→: 內野手禁止離開紅土區執行上是有什麼困難?05/08 19:49
66F→: 柳田左飛又被滑接收走,至少該看個重播確認吧?05/08 19:51
67F→: 誰知道是不是落地了拿手套蓋住做假動作?05/08 19:51
68F→: 九上津森05/08 19:52
69F→: 西川二壘沖天炮,津森對Polanco催出15305/08 19:56
70F→: Polanco中飛、寺地二滾,九下05/08 19:59
72F→: 橫山關門,栗原一球右外陽春砲,一分差05/08 20:01
73F→: 柳町左飛不夠遠05/08 20:02
74F→: 那種外野飛撲挑戰還沒用完該確認倒是沒錯,周東之前05/08 20:03
75F→: 對火腿已經吃過一次虧05/08 20:03
76F→: 野村勇左安,一死一壘Akira代打05/08 20:03
77F→: Akira中飛,兩死一壘05/08 20:05
78F→: 野村勇盜上二壘05/08 20:05
79F→: 牧原左安落地,這次西川撲不到了,追平!!05/08 20:07
80F→: 牧原站上二壘05/08 20:07
81F→: 谷川原兩好球右外歐把,再見安打!!!05/08 20:10
83F→: 西川回板凳哭了05/08 20:12
84F→: 谷川原一人英雄台05/08 20:14
85F→: 谷川原生涯第一支再見安打05/08 20:15
86F→: 送了好大一隻Hello Kitty05/08 20:19
89F→: 津森拿下本季首勝05/08 20:39
91F→: 近藤本季第8號全壘打,獻給前天猝逝的哥哥05/08 21:29
93F→: 二軍週五跟一軍同樣傍晚打,6:2勝阪神,前六局1:1,05/09 01:39
94F→: 七上開5分大局;去年育成選秀最後順位入團的北斗先發05/09 01:39
95F→: ,五局68球1安打、4三振、3保送,失分是高橋失誤弄掉05/09 01:41
96F→: 伊藤優輔、大竹風雅接手各投兩局,大竹5三振,九下被05/09 01:42
97F→: 打掉一分05/09 01:42
98F→: 正木先發五棒左外,4打數2安打,後段石見代跑守游擊05/09 01:43
99F→: Ikhine單場4保送+二壘打,完全想不到05/09 01:43
100F→: 小久保:有考慮五局換投,或佐藤都代打時換Hernandez05/09 01:52
101F→: ,但上澤開季以來始終扛住輪值,因此還是讓他自己拆05/09 01:53
102F→: (只是今天終究壓不住)05/09 01:53
103F→: 二軍東濱先發,一下就被井上後逸害到,兩分非責失05/09 12:23
104F→: 對方繼續7左打對付大津,我方山川、野村、海野右打05/09 12:26
105F→: 東濱只投兩局29球退場,4安打失2分(現在改成1責失)05/09 12:45
106F→: 明天打左投,前田悠 vs. 毛利海大05/09 12:47
107F→: 一下2保送一三壘殘,二上被上田陽春砲先制05/09 13:29
108F→: 友杉、佐藤都連續保送,突然亂掉了05/09 13:32
109F→: 兩出局保送藤原,滿壘,主審邊角都不給05/09 13:38
110F→: 小川平飛被牧原抓下來,總算止血05/09 13:40
111F→: 二下山川左外陽春砲追平05/09 13:46
113F→: 初速163km/h、仰角28度、距離117公尺上看台05/09 13:47
114F→: 牧原、海野連續三振,野村勇拿香,三連斬05/09 13:51
115F→: 三局雙方都三上三下05/09 14:07
116F→: 四上三上三下,上田、佐藤都三振,柳町滑接沒收友杉05/09 14:14
117F→: 四下栗原右安、柳町滿球數保送,一二壘開局05/09 14:20
118F→: 山川左外三分砲,兩打席連發!4:105/09 14:23
119F→: 初速184km/h、仰角24度、距離129公尺,更遠05/09 14:23
120F→: 牧原連兩打席三振,這次吊高揮空05/09 14:25
121F→: 第一打席被壓低的指叉騙05/09 14:25
122F→: 海野二壘後方小飛球沒鳥到05/09 14:26
123F→: 野村勇也是連兩打席三振,又沒後續了05/09 14:27
124F→: 五上高部一滾,大津補位慢了,先頭上壘05/09 14:30
125F→: 藤原游擊後方飛球追上,小川左安,野村勇抓不到05/09 14:33
126F→: 一死一二壘危機05/09 14:33
127F→: 西川三振,兩死一二壘,還有Polanco這關05/09 14:36
128F→: Polanco一球中飛,甩棒很威但不夠遠,下庄05/09 14:37
129F→: 勝投怪盜八木彬五下接手05/09 14:40
130F→: 周東拿香,滑球下墜幅度不小05/09 14:42
131F→: 近藤三振、柳田拿香,慘遭三連斬05/09 14:44
132F→: 友杉游滾,大津六局101球05/09 14:53
133F→: 六上寺地中飛、上田中飛、友杉游滾,這句忘了推05/09 14:54
134F→: 二軍今天0:5被阪神完封,東濱首局被井上後逸弄掉兩分05/09 14:54
135F→: (井上先發右外),中村稔接手四局失3分;打線4安打05/09 14:56
136F→: 正木先發三棒一壘,4打數1安打05/09 14:56
137F→: 六下栗原中飛、柳町左飛、山川一球高彈跳游滾,三凡05/09 14:58
138F→: 七上被佐藤都陽春砲,4:205/09 15:01
139F→: 高部高彈跳安打跳過栗原,倉野上投手丘05/09 15:02
140F→: 藤原中飛、小川左安,一死一二壘05/09 15:04
141F→: 小久保換投,大津今年第一次投不滿七局05/09 15:04
143F→: 加油啊,對方三四棒不好對付05/09 15:06
144F→: 西川二滾,兩死一三壘05/09 15:08
145F→: 對Polanco第一球差點暴投05/09 15:09
146F→: 連三壞先來05/09 15:10
147F→: 保送,兩死滿壘05/09 15:10
148F→: 1s3b,別鬧啊05/09 15:12
150F→: 滿球數保送押出,4:305/09 15:14
151F→: 上田三壘平飛被栗原撲掉,領先只剩一分05/09 15:15
152F→: 羅德七下中森接手,牧原二壘平飛找人05/09 15:18
153F→: 海野拿香、野村勇中飛,三上三下05/09 15:22
154F→: 八上木村光05/09 15:24
157F→: 友杉中飛、佐藤都右外陽春砲追平,BS05/09 15:27
158F→: 今年4支全壘打全打我們,對其他隊完全打不出來05/09 15:27
159F→: 教練團不該想點辦法嗎?05/09 15:27
161F→: 高部中飛、藤原游滾,4:4八下05/09 15:32
162F→: 鈴木昭汰八下二連投05/09 15:34
163F→: 周東二滾又被極端布陣沒收,幹05/09 15:36
166F→: 近藤二滾、柳田滿球數保送,兩死一壘05/09 15:42
167F→: 救援投手六局以後砸掉都算BS,自己搞清楚定義先吧05/09 15:42
169F→: 成天狙擊版友的有完沒完05/09 15:43
171F→: 栗原中飛,殘05/09 15:43
173F→: 不知道BS不限於第九局的比較好笑,自己去查05/09 15:44
174F→: 松本裕平手登板05/09 15:45
175F→: https://tinyurl.com/y69db2u05/09 15:47
177F→: "regardless of whether he pitches the ninth"05/09 15:48
178F→: 這句最好是限定於第九局的意思05/09 15:48
179F→: 小川偷點被栗原守到,先抓一個05/09 15:49
182F→: 西川滿球數游擊沖天炮05/09 15:51
187F→: 剛好進Lucky Zone05/09 15:53
188F→: 有人覺得我們被沒收安打不但不能生氣還要鼓掌,那是05/09 15:53
189F→: 他的事,但不代表覺得生氣就有罪05/09 15:54
190F→: 接著又被安打05/09 15:54
192F→: 選手自己都不可能不在乎勝負了,拿這來要求球迷?05/09 15:56
193F→: 連續安打,兩出局後突然出事05/09 15:56
194F→: 火腿好不容易在京瓷贏球,我們卻沒法把握機會追近05/09 16:00
195F→: 兩出局後被4安(HR+三連打),滿壘05/09 16:01
197F→: 是不是你說了算?05/09 16:02
198F→: 針對個人挑釁碰瓷的更不像球迷05/09 16:02
199F→: 破30球了05/09 16:03
202F→: 滿球數左飛,九下05/09 16:05
203F→: 九下567棒,至少得先上壘05/09 16:06
204F→: 對方橫山關門05/09 16:06
205F→: 柳町中飛,一死05/09 16:09
206F→: 山川三滾,兩死05/09 16:11
207F→: 牧原滿球數保送,庄子代跑,不過Akira代打05/09 16:15
208F→: Akira左飛,三分領先被逆轉敗05/09 16:17
209F→: 跟西武沒勝差了,落後歐力士還是三場半05/09 16:18
210F→: 先發投手連6場沒勝投,本季最慘紀錄持續中;下週三05/09 16:25
211F→: 有可能會是藤原大翔在主場先發初登板對高橋光成05/09 16:25
214F→: 明天前田再次中六日,自求多福吧05/09 16:36
215F→: 打線上次對毛利直到七局才有栗原的兩分砲05/09 16:36
217F→: Armenta下週二預定在主場三軍戰先發05/09 17:56
218F→: 春訓到開季表現令人刮目相看的育成左投長水,三月中05/09 17:59
219F→: 二軍初先發之後腰椎出狀況開刀,預計六月中歸隊05/09 18:00
220F→: 東濱相隔15天先發登板,他說今天球速有出來,變化球05/09 18:00
221F→: 卻不太夠力,目前持續穩定調整中05/09 18:00
222F→: 24年4指宇野真仁朗開TJ休養11個月之後,下週二三軍05/09 20:17
223F→: 恢復實戰05/09 20:17
224F→: 然後前田說明天從第一局就要全力催,要阻止對方打線05/09 20:25
225F→: 從後段串回前段05/09 20:25
226F→: 大山凌在二軍7場無失分了(10.1局),和巳說他能繼05/09 20:48
227F→: 續穩定表現並且改善細節的話,有機會升上一軍05/09 20:48
228F→: 至少大津六局3責失的QS還是有的,他投了6.1局05/09 20:56
229F→: 小久保臉色鐵青:以為昨天逆轉再見能帶來氣勢的,但05/09 21:36
230F→: 我們今天顯然還是找不到節奏;五到七局被八木、中森05/09 21:36
231F→: 九上九下,氣勢從此倒向對方05/09 21:36
2F→: 看到八上老虎3:1,還覺得應該拿得下來吧,被再見?05/09 21:28
17F→: 我以為是寫了「真的好想贏」才被罵的05/09 21:16
102F→: 不然就看今後哪隊能空出名額讓他向上流動05/09 20:57
104F→: 不過他的年紀,應該就當包裹的配菜了05/09 21:00
70F→: 4/16發生的,到現在將近一個月05/09 20:50
Fitzwilliam 在 PTT 的暱稱紀錄, 共 9 個
暱稱:version 2.021
文章數量:8180
暱稱:Out of touch
文章數量:941
暱稱:A暄
文章數量:1
暱稱:pf775
文章數量:1
暱稱:韶光已逝,紅顏既老
文章數量:41
暱稱:Uhlander
文章數量:273